FW7447 Weather Reports


Display with metric or nautical units.
time (UTC)temp
F
wind
direction
speed
MPH
gust
MPH
rain 1hr
in
rain 24hr
in
rain mn
in
humidity
%
barometer
mb
20260507194541 74 290 6.0 15.0 0.00 0.44 0.21 62 1008.8
20260507193041 74 263 4.0 13.0 0.00 0.44 0.21 61 1008.7
20260507191548 75 294 8.0 14.0 0.00 0.44 0.21 60 1008.9
20260507190041 75 260 4.0 14.0 0.00 0.44 0.21 62 1008.8
20260507184534 75 272 5.0 11.0 0.00 0.44 0.21 63 1009.0
20260507183044 75 288 2.0 9.0 0.00 0.44 0.21 67 1009.0
20260507181544 73 286 3.0 7.0 0.00 0.44 0.21 74 1008.9
20260507180046 73 265 2.0 6.0 0.00 0.44 0.21 73 1009.0
20260507174539 74 261 2.0 5.0 0.00 0.44 0.21 72 1008.9
20260507173036 76 189 2.0 12.0 0.00 0.44 0.21 67 1009.0
20260507171545 76 154 3.0 9.0 0.00 0.44 0.21 69 1009.0
20260507170045 74 269 2.0 5.0 0.00 0.44 0.21 74 1009.1
20260507164540 73 201 2.0 9.0 0.00 0.51 0.21 75 1009.4
20260507163040 73 186 3.0 7.0 0.00 0.51 0.21 76 1009.8
20260507161536 72 176 3.0 9.0 0.00 0.51 0.21 80 1009.7
20260507160047 70 166 4.0 9.0 0.00 0.51 0.21 83 1010.1
20260507154541 70 193 4.0 11.0 0.00 0.52 0.21 84 1010.1
20260507153040 69 199 2.0 7.0 0.00 0.52 0.21 86 1009.9
20260507151546 67 152 3.0 7.0 0.00 0.52 0.21 90 1009.4
20260507150040 66 192 2.0 6.0 0.00 0.52 0.21 96 1009.9
20260507144544 65 200 2.0 6.0 0.00 0.52 0.21 98 1010.3
20260507143044 64 188 1.0 5.0 0.00 0.52 0.21 98 1010.3
20260507141540 63 0 0.0 3.0 0.00 0.52 0.21 98 1010.7
20260507140056 63 0 0.0 2.0 0.00 0.52 0.21 98 1010.7
20260507134548 62 205 0.0 4.0 0.00 0.52 0.21 98 1010.7
20260507133046 62 0 0.0 0.0 0.00 0.52 0.21 98 1010.2
20260507131547 62 0 0.0 4.0 0.00 0.52 0.21 98 1010.5
20260507130043 62 0 1.0 4.0 0.01 0.52 0.21 98 1010.3
20260507124540 62 169 0.0 2.0 0.03 0.52 0.21 98 1010.1
20260507123042 61 0 0.0 1.0 0.06 0.52 0.21 98 1010.0
20260507121545 61 146 1.0 4.0 0.09 0.52 0.21 98 1010.4
20260507120044 61 146 1.0 5.0 0.09 0.51 0.20 98 1011.1
20260507114544 61 211 1.0 2.0 0.08 0.49 0.18 98 1011.3
20260507113041 61 0 1.0 3.0 0.05 0.46 0.15 98 1012.0
20260507111544 61 205 0.0 3.0 0.02 0.43 0.12 98 1011.6
20260507110036 61 0 0.0 2.0 0.01 0.42 0.11 97 1010.8
20260507104544 61 207 1.0 4.0 0.00 0.41 0.10 97 1011.0
20260507103043 61 209 0.0 0.0 0.00 0.41 0.10 98 1011.3
20260507101558 61 0 0.0 0.0 0.00 0.41 0.10 97 1010.7
20260507100039 61 0 0.0 0.0 0.00 0.41 0.10 97 1010.2
20260507094555 61 0 0.0 2.0 0.00 0.41 0.10 97 1010.7
20260507093044 61 0 0.0 3.0 0.00 0.41 0.10 97 1010.8
20260507091554 61 0 0.0 3.0 0.00 0.41 0.10 97 1010.7
20260507090058 61 206 1.0 4.0 0.00 0.41 0.10 97 1010.9
20260507084536 61 200 1.0 4.0 0.00 0.41 0.10 97 1010.8
20260507083035 61 0 0.0 2.0 0.00 0.41 0.10 97 1010.9
20260507081552 61 216 0.0 3.0 0.00 0.41 0.10 97 1011.4
20260507080045 61 0 0.0 3.0 0.00 0.41 0.10 97 1011.0
20260507074544 62 0 0.0 3.0 0.00 0.41 0.10 97 1010.9
20260507073054 61 0 0.0 7.0 0.00 0.41 0.10 97 1011.0
20260507071546 61 215 2.0 5.0 0.01 0.41 0.10 97 1011.2
20260507070121 61 0 1.0 5.0 0.01 0.41 0.10 97 1011.2
20260507064548 61 0 1.0 6.0 0.01 0.41 0.10 97 1011.5
20260507063044 61 121 3.0 7.0 0.04 0.41 0.10 97 1011.8
20260507061539 62 179 3.0 9.0 0.04 0.40 0.09 97 1012.1
20260507060040 62 172 4.0 8.0 0.05 0.40 0.09 97 1012.2
20260507054550 62 157 1.0 5.0 0.08 0.40 0.09 97 1012.7
20260507053045 62 0 1.0 3.0 0.05 0.37 0.06 97 1013.4
20260507051543 62 0 1.0 8.0 0.05 0.36 0.05 97 1013.2
20260507050041 62 0 1.0 5.0 0.04 0.35 0.04 97 1013.5
20260507044548 63 177 1.0 5.0 0.01 0.32 0.01 96 1013.7
20260507043044 63 161 2.0 7.0 0.01 0.32 0.01 96 1013.4
20260507041544 63 191 1.0 4.0 0.00 0.31 0.00 96 1013.8
20260507040049 63 185 0.0 5.0 0.00 0.31 0.00 96 1013.4
20260507034548 63 0 0.0 1.0 0.00 0.31 0.31 96 1013.2
20260507033046 63 178 1.0 7.0 0.01 0.31 0.31 96 1013.4
20260507031544 63 232 1.0 6.0 0.02 0.31 0.31 96 1013.4
20260507030047 63 0 0.0 6.0 0.02 0.31 0.31 96 1012.9
20260507024544 63 178 1.0 15.0 0.02 0.31 0.31 96 1012.4
20260507023042 64 148 3.0 9.0 0.01 0.30 0.30 96 1012.5
20260507021557 64 211 0.0 3.0 0.01 0.29 0.29 96 1014.7
20260507020052 64 213 1.0 3.0 0.04 0.29 0.29 96 1013.7
20260507014602 65 0 0.0 5.0 0.04 0.29 0.29 96 1013.8
20260507013043 65 200 1.0 3.0 0.06 0.29 0.29 96 1013.6
20260507011540 65 0 1.0 4.0 0.09 0.28 0.28 95 1012.9
20260507010039 65 252 3.0 15.0 0.11 0.25 0.25 95 1014.1
20260507004536 65 219 4.0 10.0 0.14 0.25 0.25 95 1013.1
20260507003044 66 167 3.0 10.0 0.14 0.23 0.23 94 1012.0
20260507001543 66 155 3.0 7.0 0.10 0.18 0.18 93 1012.8
20260507000045 66 182 2.0 7.0 0.06 0.14 0.14 93 1013.4
20260506234536 67 171 1.0 6.0 0.03 0.11 0.11 92 1013.4
20260506233049 67 198 2.0 8.0 0.01 0.09 0.09 91 1013.4
20260506231544 67 225 2.0 9.0 0.00 0.08 0.08 90 1012.5
20260506230046 68 237 2.0 7.0 0.00 0.08 0.08 89 1012.3
20260506224540 69 159 0.0 5.0 0.00 0.08 0.08 87 1012.1
20260506223039 69 166 3.0 7.0 0.00 0.08 0.08 85 1012.6
20260506221535 70 218 1.0 4.0 0.00 0.08 0.08 84 1013.1
20260506220051 70 0 0.0 2.0 0.00 0.08 0.08 82 1012.2
20260506214546 70 215 2.0 6.0 0.00 0.08 0.08 81 1012.7
20260506213041 70 249 1.0 7.0 0.00 0.08 0.08 81 1012.8
20260506211541 70 274 2.0 10.0 0.00 0.08 0.08 81 1012.6
20260506210043 71 204 3.0 8.0 0.00 0.08 0.08 80 1012.7
20260506204546 70 255 3.0 10.0 0.00 0.08 0.08 81 1012.7
20260506203051 70 200 4.0 9.0 0.00 0.08 0.08 80 1012.8
20260506201604 70 212 3.0 10.0 0.00 0.08 0.08 80 1013.1
20260506200051 70 24 2.0 16.0 0.00 0.08 0.08 81 1013.2